Location: Centerville
(32.8776°N, 96.6203°W)
Time: 20:17:41
(UTC+00:00)

Delta 128 - Pass Details

Date: 02 November 2021
Orbit: 608 x 1216 km, 28.0° (Epoch: 27 November)

Event Time Altitude Azimuth Distance (km) Brightness Sun altitude
Exits shadow 10:59:49 - 211° (SSW) 3,145 6.9 -22.6°
Reaches altitude 10° 11:00:22 10° 209° (SSW) 3,000 6.8 -22.5°
Maximum altitude 11:06:31 27° 154° (SSE) 2,090 6.5 -21.2°
Drops below altitude 10° 11:12:56 10° 100° (E) 3,155 8.4 -19.9°
Sets 11:16:18 0° 89° (E) 4,113 9.4 -19.2°
